| time (UTC) | temp C | wind direction | speed KPH | gust KPH | rain 1hr cm | rain 24hr cm | rain mn cm | humidity % | barometer mb |
| 20260508035247 | 16 | 123 | 0.0 | 3.2 | 0.00 | 0.00 | 0.00 | 90 | 1007.8 |
| 20260508034748 | 16 | 117 | 0.0 | 0.0 | 0.00 | 0.00 | 0.00 | 90 | 1007.9 |
| 20260508034246 | 16 | 117 | 0.0 | 0.0 | 0.00 | 0.00 | 0.00 | 90 | 1007.9 |
| 20260508033748 | 16 | 117 | 0.0 | 1.6 | 0.00 | 0.00 | 0.00 | 91 | 1007.8 |
| 20260508033247 | 16 | 117 | 1.6 | 4.8 | 0.00 | 0.00 | 0.00 | 91 | 1007.8 |
| 20260508032747 | 16 | 114 | 1.6 | 4.8 | 0.00 | 0.00 | 0.00 | 91 | 1007.8 |
| 20260508032247 | 16 | 127 | 0.0 | 4.8 | 0.00 | 0.00 | 0.00 | 91 | 1007.8 |
| 20260508031745 | 16 | 98 | 0.0 | 4.8 | 0.00 | 0.03 | 0.00 | 91 | 1007.7 |
| 20260508031244 | 16 | 186 | 0.0 | 0.0 | 0.00 | 0.03 | 0.00 | 91 | 1007.7 |
| 20260508030744 | 16 | 186 | 0.0 | 0.0 | 0.00 | 0.03 | 0.00 | 91 | 1007.6 |
| 20260508030244 | 16 | 186 | 0.0 | 0.0 | 0.00 | 0.03 | 0.00 | 91 | 1007.7 |
| 20260508025745 | 16 | 186 | 0.0 | 0.0 | 0.00 | 0.03 | 0.00 | 91 | 1007.6 |
| 20260508025243 | 16 | 160 | 0.0 | 1.6 | 0.00 | 0.03 | 0.00 | 91 | 1007.5 |
| 20260508024742 | 16 | 160 | 0.0 | 1.6 | 0.00 | 0.03 | 0.00 | 91 | 1007.7 |
| 20260508024242 | 16 | 160 | 0.0 | 1.6 | 0.00 | 0.03 | 0.00 | 91 | 1007.6 |
| 20260508023742 | 16 | 158 | 0.0 | 1.6 | 0.00 | 0.03 | 0.00 | 91 | 1007.5 |
| 20260508023242 | 16 | 158 | 0.0 | 1.6 | 0.00 | 0.03 | 0.00 | 91 | 1007.5 |
| 20260508022744 | 16 | 175 | 0.0 | 0.0 | 0.00 | 0.03 | 0.00 | 91 | 1007.5 |
| 20260508022243 | 16 | 176 | 0.0 | 0.0 | 0.00 | 0.03 | 0.00 | 91 | 1007.5 |
| 20260508021743 | 16 | 176 | 0.0 | 0.0 | 0.00 | 0.03 | 0.00 | 91 | 1007.4 |
| 20260508021242 | 16 | 176 | 0.0 | 0.0 | 0.00 | 0.03 | 0.00 | 91 | 1007.5 |
| 20260508020742 | 16 | 176 | 0.0 | 0.0 | 0.00 | 0.03 | 0.00 | 91 | 1007.5 |
| 20260508020240 | 16 | 176 | 0.0 | 0.0 | 0.00 | 0.03 | 0.00 | 91 | 1007.5 |
| 20260508015738 | 16 | 176 | 0.0 | 0.0 | 0.00 | 0.03 | 0.00 | 91 | 1007.4 |
| 20260508015239 | 16 | 176 | 0.0 | 0.0 | 0.00 | 0.03 | 0.00 | 91 | 1007.5 |
| 20260508014738 | 16 | 176 | 0.0 | 0.0 | 0.00 | 0.03 | 0.00 | 91 | 1007.4 |
| 20260508014514 | 16 | 176 | 0.0 | 0.0 | 0.00 | 0.03 | 0.00 | 91 | 1007.5 |
| 20260508014012 | 16 | 176 | 0.0 | 0.0 | 0.00 | 0.03 | 0.00 | 91 | 1007.5 |
| 20260508013232 | 16 | 176 | 0.0 | 0.0 | 0.00 | 0.03 | 0.00 | 91 | 1007.4 |
| 20260508012731 | 16 | 176 | 0.0 | 1.6 | 0.00 | 0.03 | 0.00 | 91 | 1007.4 |
| 20260508012231 | 16 | 176 | 0.0 | 1.6 | 0.00 | 0.03 | 0.00 | 91 | 1007.3 |
| 20260508011731 | 16 | 176 | 0.0 | 1.6 | 0.00 | 0.03 | 0.00 | 92 | 1007.3 |
| 20260508011231 | 16 | 176 | 0.0 | 0.0 | 0.00 | 0.03 | 0.00 | 91 | 1007.3 |
| 20260508010730 | 16 | 176 | 0.0 | 0.0 | 0.00 | 0.03 | 0.00 | 91 | 1007.2 |
| 20260508010510 | 16 | 176 | 0.0 | 0.0 | 0.00 | 0.03 | 0.00 | 91 | 1007.2 |
| 20260508005730 | 16 | 176 | 0.0 | 0.0 | 0.00 | 0.03 | 0.00 | 91 | 1007.2 |
| 20260508005230 | 16 | 176 | 0.0 | 0.0 | 0.00 | 0.03 | 0.00 | 91 | 1007.1 |
| 20260508004730 | 16 | 176 | 0.0 | 0.0 | 0.00 | 0.03 | 0.00 | 91 | 1007.1 |
| 20260508004231 | 16 | 176 | 0.0 | 0.0 | 0.00 | 0.03 | 0.00 | 91 | 1007.2 |
| 20260508003728 | 16 | 176 | 0.0 | 0.0 | 0.00 | 0.03 | 0.00 | 91 | 1007.1 |
| 20260508003226 | 16 | 176 | 0.0 | 0.0 | 0.00 | 0.03 | 0.00 | 91 | 1007.3 |
| 20260508002726 | 16 | 176 | 0.0 | 0.0 | 0.00 | 0.03 | 0.00 | 91 | 1007.3 |
| 20260508002228 | 16 | 176 | 0.0 | 0.0 | 0.00 | 0.03 | 0.00 | 91 | 1007.5 |
| 20260508001727 | 16 | 176 | 0.0 | 1.6 | 0.00 | 0.03 | 0.00 | 91 | 1007.6 |
| 20260508001226 | 16 | 173 | 0.0 | 1.6 | 0.00 | 0.03 | 0.00 | 91 | 1007.7 |
| 20260508000724 | 16 | 173 | 0.0 | 0.0 | 0.00 | 0.03 | 0.00 | 91 | 1007.8 |
| 20260508000227 | 16 | 173 | 0.0 | 1.6 | 0.00 | 0.03 | 0.00 | 91 | 1007.8 |
| 20260507235725 | 16 | 173 | 0.0 | 1.6 | 0.00 | 0.03 | 0.00 | 91 | 1007.9 |
| 20260507235225 | 16 | 173 | 0.0 | 0.0 | 0.00 | 0.03 | 0.00 | 91 | 1008.0 |
| 20260507235000 | 16 | 173 | 0.0 | 0.0 | 0.00 | 0.03 | 0.00 | 92 | 1007.9 |
| 20260507234224 | 16 | 173 | 0.0 | 0.0 | 0.00 | 0.03 | 0.00 | 92 | 1008.0 |
| 20260507233724 | 16 | 173 | 0.0 | 0.0 | 0.00 | 0.03 | 0.00 | 92 | 1008.0 |
| 20260507233502 | 16 | 173 | 0.0 | 0.0 | 0.00 | 0.03 | 0.00 | 92 | 1008.0 |
| 20260507232719 | 16 | 173 | 0.0 | 0.0 | 0.00 | 0.03 | 0.00 | 92 | 1008.0 |
| 20260507232220 | 16 | 173 | 0.0 | 0.0 | 0.00 | 0.03 | 0.00 | 92 | 1008.1 |
| 20260507231719 | 16 | 173 | 0.0 | 0.0 | 0.00 | 0.03 | 0.00 | 92 | 1008.2 |
| 20260507231456 | 16 | 172 | 0.0 | 0.0 | 0.00 | 0.03 | 0.00 | 91 | 1008.2 |
| 20260507230719 | 16 | 173 | 0.0 | 0.0 | 0.00 | 0.03 | 0.00 | 91 | 1008.2 |
| 20260507230457 | 16 | 173 | 0.0 | 0.0 | 0.00 | 0.03 | 0.00 | 92 | 1008.2 |
| 20260507225719 | 16 | 173 | 0.0 | 0.0 | 0.00 | 0.03 | 0.00 | 92 | 1008.3 |
| 20260507225218 | 16 | 173 | 0.0 | 0.0 | 0.00 | 0.03 | 0.00 | 92 | 1008.5 |
| 20260507224717 | 16 | 173 | 0.0 | 0.0 | 0.00 | 0.03 | 0.00 | 92 | 1008.4 |
| 20260507224214 | 16 | 173 | 0.0 | 0.0 | 0.00 | 0.03 | 0.00 | 92 | 1008.5 |
| 20260507223713 | 16 | 173 | 0.0 | 0.0 | 0.00 | 0.03 | 0.00 | 91 | 1008.6 |
| 20260507223210 | 16 | 173 | 0.0 | 0.0 | 0.00 | 0.03 | 0.00 | 92 | 1008.6 |
| 20260507222708 | 16 | 173 | 0.0 | 0.0 | 0.00 | 0.03 | 0.00 | 92 | 1008.8 |
| 20260507222206 | 16 | 173 | 0.0 | 0.0 | 0.00 | 0.03 | 0.00 | 92 | 1008.7 |
| 20260507221703 | 16 | 173 | 0.0 | 0.0 | 0.00 | 0.03 | 0.00 | 92 | 1008.7 |
| 20260507221202 | 16 | 173 | 0.0 | 0.0 | 0.00 | 0.03 | 0.00 | 91 | 1008.7 |
| 20260507220700 | 16 | 173 | 0.0 | 0.0 | 0.00 | 0.03 | 0.00 | 92 | 1008.7 |
| 20260507220158 | 16 | 173 | 0.0 | 0.0 | 0.00 | 0.03 | 0.00 | 92 | 1008.7 |
| 20260507215658 | 15 | 173 | 0.0 | 0.0 | 0.00 | 0.03 | 0.03 | 91 | 1008.6 |
| 20260507215157 | 15 | 173 | 0.0 | 0.0 | 0.00 | 0.03 | 0.03 | 91 | 1008.7 |
| 20260507214932 | 16 | 172 | 0.0 | 0.0 | 0.00 | 0.03 | 0.03 | 91 | 1008.8 |
| 20260507214157 | 16 | 172 | 0.0 | 0.0 | 0.00 | 0.03 | 0.03 | 91 | 1008.8 |
| 20260507213703 | 16 | 172 | 0.0 | 0.0 | 0.00 | 0.03 | 0.03 | 91 | 1008.8 |
| 20260507213201 | 16 | 172 | 0.0 | 0.0 | 0.00 | 0.03 | 0.03 | 91 | 1008.8 |
| 20260507212658 | 16 | 173 | 0.0 | 0.0 | 0.00 | 0.03 | 0.03 | 91 | 1008.8 |
| 20260507212423 | 16 | 173 | 0.0 | 1.6 | 0.00 | 0.05 | 0.03 | 91 | 1008.9 |
| 20260507211658 | 16 | 283 | 0.0 | 1.6 | 0.00 | 0.05 | 0.03 | 91 | 1008.8 |
| 20260507211157 | 16 | 283 | 0.0 | 0.0 | 0.00 | 0.05 | 0.03 | 91 | 1008.8 |
| 20260507210929 | 16 | 283 | 0.0 | 0.0 | 0.00 | 0.05 | 0.03 | 91 | 1008.8 |
| 20260507210151 | 16 | 283 | 0.0 | 0.0 | 0.00 | 0.05 | 0.03 | 91 | 1008.8 |
| 20260507205649 | 16 | 283 | 0.0 | 1.6 | 0.00 | 0.05 | 0.03 | 91 | 1008.9 |
| 20260507205419 | 16 | 283 | 0.0 | 1.6 | 0.00 | 0.05 | 0.03 | 91 | 1008.8 |
| 20260507204649 | 16 | 283 | 0.0 | 0.0 | 0.00 | 0.05 | 0.03 | 91 | 1008.8 |
| 20260507204149 | 16 | 283 | 0.0 | 0.0 | 0.00 | 0.05 | 0.03 | 90 | 1008.9 |
| 20260507203647 | 15 | 283 | 0.0 | 1.6 | 0.00 | 0.05 | 0.03 | 90 | 1008.8 |
| 20260507203145 | 16 | 283 | 0.0 | 1.6 | 0.00 | 0.05 | 0.03 | 90 | 1008.7 |
| 20260507202645 | 16 | 286 | 0.0 | 0.0 | 0.00 | 0.05 | 0.03 | 90 | 1008.8 |
| 20260507202145 | 16 | 286 | 0.0 | 0.0 | 0.00 | 0.05 | 0.03 | 89 | 1009.0 |
| 20260507201644 | 16 | 286 | 0.0 | 0.0 | 0.00 | 0.05 | 0.03 | 89 | 1009.1 |
| 20260507201141 | 16 | 286 | 0.0 | 0.0 | 0.00 | 0.05 | 0.03 | 90 | 1009.1 |
| 20260507200912 | 16 | 286 | 0.0 | 0.0 | 0.00 | 0.05 | 0.03 | 89 | 1009.1 |
| 20260507200136 | 16 | 286 | 0.0 | 1.6 | 0.00 | 0.05 | 0.03 | 89 | 1009.2 |
| 20260507195632 | 16 | 286 | 0.0 | 1.6 | 0.00 | 0.05 | 0.03 | 88 | 1009.2 |
| 20260507195131 | 16 | 146 | 0.0 | 0.0 | 0.00 | 0.05 | 0.03 | 88 | 1009.3 |
| 20260507194629 | 16 | 214 | 0.0 | 0.0 | 0.00 | 0.05 | 0.03 | 88 | 1009.3 |
| 20260507194123 | 16 | 214 | 0.0 | 0.0 | 0.00 | 0.05 | 0.03 | 88 | 1009.3 |
| 20260507193618 | 16 | 214 | 0.0 | 0.0 | 0.00 | 0.05 | 0.03 | 88 | 1009.3 |
| 20260507193119 | 17 | 215 | 0.0 | 0.0 | 0.00 | 0.05 | 0.03 | 87 | 1009.3 |
| 20260507192619 | 17 | 214 | 0.0 | 0.0 | 0.00 | 0.05 | 0.03 | 88 | 1009.3 |
| 20260507192117 | 17 | 214 | 0.0 | 0.0 | 0.00 | 0.05 | 0.03 | 88 | 1009.3 |
| 20260507191614 | 17 | 214 | 0.0 | 0.0 | 0.00 | 0.05 | 0.03 | 88 | 1009.3 |
| 20260507191340 | 17 | 233 | 0.0 | 0.0 | 0.00 | 0.05 | 0.03 | 88 | 1009.3 |
| 20260507190611 | 17 | 233 | 0.0 | 0.0 | 0.00 | 0.05 | 0.03 | 88 | 1009.3 |
| 20260507190109 | 17 | 233 | 0.0 | 0.0 | 0.00 | 0.05 | 0.03 | 88 | 1009.1 |
| 20260507185609 | 17 | 277 | 0.0 | 0.0 | 0.00 | 0.05 | 0.03 | 88 | 1009.1 |
| 20260507185110 | 17 | 278 | 0.0 | 1.6 | 0.00 | 0.05 | 0.03 | 88 | 1009.2 |
| 20260507184607 | 17 | 269 | 0.0 | 3.2 | 0.00 | 0.05 | 0.03 | 87 | 1009.0 |
| 20260507184104 | 17 | 282 | 0.0 | 3.2 | 0.00 | 0.05 | 0.03 | 87 | 1009.1 |
| 20260507183605 | 17 | 279 | 0.0 | 1.6 | 0.00 | 0.05 | 0.03 | 87 | 1009.1 |
| 20260507183103 | 17 | 270 | 0.0 | 1.6 | 0.00 | 0.05 | 0.03 | 87 | 1009.2 |
| 20260507182603 | 17 | 258 | 0.0 | 1.6 | 0.00 | 0.05 | 0.03 | 86 | 1009.3 |
| 20260507182103 | 17 | 258 | 0.0 | 1.6 | 0.00 | 0.05 | 0.03 | 86 | 1009.3 |
| 20260507181602 | 18 | 257 | 0.0 | 1.6 | 0.00 | 0.05 | 0.03 | 85 | 1009.2 |
| 20260507181332 | 18 | 266 | 0.0 | 3.2 | 0.00 | 0.05 | 0.03 | 85 | 1009.3 |
| 20260507180603 | 18 | 243 | 0.0 | 3.2 | 0.00 | 0.05 | 0.03 | 85 | 1009.4 |
| 20260507180335 | 18 | 252 | 1.6 | 3.2 | 0.00 | 0.05 | 0.03 | 85 | 1009.4 |
| 20260507175832 | 18 | 244 | 1.6 | 3.2 | 0.00 | 0.05 | 0.03 | 84 | 1009.4 |
| 20260507175102 | 18 | 281 | 1.6 | 4.8 | 0.00 | 0.05 | 0.03 | 84 | 1009.4 |
| 20260507174602 | 18 | 267 | 1.6 | 4.8 | 0.00 | 0.05 | 0.03 | 84 | 1009.5 |
| 20260507174102 | 18 | 259 | 1.6 | 4.8 | 0.00 | 0.05 | 0.03 | 83 | 1009.7 |
| 20260507173603 | 18 | 266 | 1.6 | 4.8 | 0.00 | 0.05 | 0.03 | 83 | 1009.6 |
| 20260507173102 | 18 | 222 | 3.2 | 6.4 | 0.00 | 0.05 | 0.03 | 83 | 1009.6 |
| 20260507172602 | 18 | 259 | 3.2 | 8.0 | 0.00 | 0.05 | 0.03 | 83 | 1009.6 |
| 20260507172104 | 18 | 259 | 3.2 | 8.0 | 0.00 | 0.05 | 0.03 | 83 | 1009.7 |
| 20260507171603 | 19 | 264 | 3.2 | 6.4 | 0.00 | 0.05 | 0.03 | 82 | 1009.7 |
| 20260507171058 | 19 | 282 | 3.2 | 6.4 | 0.00 | 0.05 | 0.03 | 82 | 1009.7 |
| 20260507170552 | 19 | 254 | 3.2 | 8.0 | 0.00 | 0.05 | 0.03 | 82 | 1009.7 |
| 20260507170317 | 19 | 289 | 3.2 | 9.7 | 0.00 | 0.05 | 0.03 | 82 | 1009.7 |
| 20260507165545 | 19 | 262 | 3.2 | 9.7 | 0.00 | 0.05 | 0.03 | 82 | 1009.7 |
| 20260507165100 | 19 | 271 | 3.2 | 6.4 | 0.00 | 0.05 | 0.03 | 82 | 1009.7 |
| 20260507165053 | 19 | 244 | 3.2 | 6.4 | 0.00 | 0.05 | 0.03 | 82 | 1009.7 |
| 20260507164045 | 19 | 235 | 3.2 | 8.0 | 0.00 | 0.05 | 0.03 | 81 | 1009.8 |
| 20260507163545 | 19 | 252 | 3.2 | 8.0 | 0.00 | 0.05 | 0.03 | 82 | 1009.7 |
| 20260507163045 | 19 | 244 | 4.8 | 9.7 | 0.00 | 0.05 | 0.03 | 81 | 1009.7 |
| 20260507162542 | 19 | 273 | 4.8 | 9.7 | 0.00 | 0.05 | 0.03 | 81 | 1009.6 |
| 20260507162042 | 19 | 224 | 4.8 | 9.7 | 0.00 | 0.05 | 0.03 | 81 | 1009.7 |
| 20260507161542 | 19 | 257 | 4.8 | 11.3 | 0.00 | 0.05 | 0.03 | 81 | 1009.6 |
| 20260507161042 | 19 | 266 | 4.8 | 11.3 | 0.00 | 0.05 | 0.03 | 81 | 1009.8 |
| 20260507160542 | 20 | 243 | 4.8 | 9.7 | 0.00 | 0.05 | 0.03 | 81 | 1009.8 |
| 20260507160041 | 20 | 243 | 6.4 | 12.9 | 0.00 | 0.05 | 0.03 | 81 | 1009.8 |
| 20260507155541 | 20 | 246 | 6.4 | 12.9 | 0.00 | 0.05 | 0.03 | 80 | 1009.9 |
| 20260507155041 | 20 | 290 | 6.4 | 11.3 | 0.00 | 0.05 | 0.03 | 80 | 1009.9 |
| 20260507154540 | 20 | 247 | 4.8 | 11.3 | 0.00 | 0.05 | 0.03 | 79 | 1009.8 |
| 20260507154041 | 20 | 297 | 6.4 | 11.3 | 0.00 | 0.05 | 0.03 | 80 | 1009.8 |
| 20260507153541 | 20 | 258 | 6.4 | 11.3 | 0.00 | 0.05 | 0.03 | 79 | 1009.8 |
| 20260507153041 | 20 | 215 | 6.4 | 11.3 | 0.00 | 0.05 | 0.03 | 79 | 1009.9 |
| 20260507152540 | 20 | 250 | 6.4 | 11.3 | 0.00 | 0.05 | 0.03 | 78 | 1009.9 |
| 20260507152041 | 20 | 221 | 6.4 | 11.3 | 0.00 | 0.05 | 0.03 | 78 | 1009.9 |
| 20260507151540 | 20 | 231 | 6.4 | 11.3 | 0.00 | 0.05 | 0.03 | 78 | 1009.8 |
| 20260507151311 | 20 | 239 | 8.0 | 11.3 | 0.00 | 0.05 | 0.03 | 77 | 1009.9 |
| 20260507150541 | 20 | 229 | 6.4 | 12.9 | 0.00 | 0.05 | 0.03 | 77 | 1010.0 |
| 20260507150040 | 20 | 257 | 4.8 | 12.9 | 0.00 | 0.05 | 0.03 | 77 | 1010.0 |
| 20260507145540 | 20 | 245 | 6.4 | 12.9 | 0.00 | 0.05 | 0.03 | 76 | 1010.1 |
| 20260507145040 | 20 | 231 | 8.0 | 14.5 | 0.00 | 0.05 | 0.03 | 77 | 1010.2 |
| 20260507144540 | 20 | 205 | 8.0 | 14.5 | 0.00 | 0.05 | 0.03 | 76 | 1010.1 |
| 20260507144040 | 20 | 213 | 6.4 | 12.9 | 0.00 | 0.05 | 0.03 | 77 | 1010.1 |
| 20260507143540 | 20 | 196 | 6.4 | 11.3 | 0.00 | 0.05 | 0.03 | 77 | 1010.1 |
| 20260507143040 | 20 | 265 | 6.4 | 11.3 | 0.00 | 0.05 | 0.03 | 77 | 1010.2 |
| 20260507142540 | 20 | 190 | 6.4 | 11.3 | 0.00 | 0.05 | 0.03 | 79 | 1010.2 |
| 20260507142040 | 20 | 238 | 6.4 | 14.5 | 0.00 | 0.05 | 0.03 | 78 | 1010.2 |
| 20260507141540 | 20 | 226 | 6.4 | 14.5 | 0.00 | 0.05 | 0.03 | 77 | 1010.2 |
| 20260507141040 | 20 | 226 | 6.4 | 12.9 | 0.00 | 0.05 | 0.03 | 76 | 1010.4 |
| 20260507140538 | 20 | 243 | 4.8 | 9.7 | 0.00 | 0.05 | 0.03 | 76 | 1010.4 |
| 20260507140039 | 20 | 217 | 4.8 | 9.7 | 0.00 | 0.05 | 0.03 | 75 | 1010.4 |
| 20260507135539 | 20 | 205 | 4.8 | 9.7 | 0.00 | 0.05 | 0.03 | 75 | 1010.5 |
| 20260507135033 | 21 | 250 | 4.8 | 9.7 | 0.00 | 0.05 | 0.03 | 74 | 1010.6 |
| 20260507134526 | 21 | 234 | 4.8 | 11.3 | 0.00 | 0.05 | 0.03 | 74 | 1010.7 |
| 20260507134026 | 21 | 255 | 4.8 | 11.3 | 0.00 | 0.05 | 0.03 | 73 | 1010.7 |
| 20260507133523 | 21 | 223 | 4.8 | 8.0 | 0.00 | 0.05 | 0.03 | 73 | 1010.8 |
| 20260507133024 | 21 | 266 | 4.8 | 11.3 | 0.00 | 0.05 | 0.03 | 73 | 1010.9 |
| 20260507132524 | 21 | 264 | 4.8 | 11.3 | 0.00 | 0.05 | 0.03 | 73 | 1011.1 |
| 20260507132253 | 21 | 222 | 4.8 | 11.3 | 0.00 | 0.05 | 0.03 | 73 | 1011.1 |
| 20260507131522 | 21 | 288 | 4.8 | 11.3 | 0.00 | 0.05 | 0.03 | 73 | 1011.2 |
| 20260507131022 | 20 | 263 | 4.8 | 8.0 | 0.00 | 0.05 | 0.03 | 73 | 1011.3 |
| 20260507130752 | 20 | 229 | 4.8 | 8.0 | 0.00 | 0.05 | 0.03 | 75 | 1011.2 |
| 20260507130022 | 20 | 240 | 4.8 | 11.3 | 0.00 | 0.05 | 0.03 | 76 | 1011.2 |
| 20260507125539 | 20 | 264 | 4.8 | 9.7 | 0.00 | 0.05 | 0.03 | 75 | 1011.2 |
| 20260507125532 | 20 | 285 | 3.2 | 11.3 | 0.00 | 0.05 | 0.03 | 74 | 1011.2 |
| 20260507124520 | 20 | 259 | 4.8 | 9.7 | 0.00 | 0.05 | 0.03 | 75 | 1011.3 |
| 20260507124017 | 20 | 229 | 3.2 | 9.7 | 0.00 | 0.05 | 0.03 | 73 | 1011.4 |
| 20260507123511 | 20 | 179 | 3.2 | 8.0 | 0.00 | 0.05 | 0.03 | 75 | 1011.5 |
| 20260507123005 | 20 | 208 | 3.2 | 8.0 | 0.00 | 0.05 | 0.03 | 74 | 1011.5 |
| 20260507122505 | 20 | 219 | 3.2 | 8.0 | 0.00 | 0.05 | 0.03 | 76 | 1011.7 |
| 20260507122004 | 20 | 258 | 4.8 | 11.3 | 0.00 | 0.05 | 0.03 | 75 | 1011.9 |
| 20260507121504 | 20 | 269 | 6.4 | 14.5 | 0.00 | 0.05 | 0.03 | 76 | 1011.7 |
| 20260507121003 | 20 | 210 | 6.4 | 14.5 | 0.00 | 0.05 | 0.03 | 75 | 1011.7 |
| 20260507120502 | 20 | 211 | 6.4 | 12.9 | 0.00 | 0.05 | 0.03 | 75 | 1011.7 |
| 20260507120005 | 20 | 181 | 4.8 | 14.5 | 0.00 | 0.05 | 0.03 | 76 | 1011.8 |
| 20260507115504 | 20 | 251 | 6.4 | 14.5 | 0.00 | 0.05 | 0.03 | 75 | 1011.8 |
| 20260507115002 | 20 | 209 | 6.4 | 12.9 | 0.00 | 0.05 | 0.03 | 75 | 1011.7 |
| 20260507114502 | 20 | 214 | 6.4 | 12.9 | 0.00 | 0.05 | 0.03 | 75 | 1011.9 |
| 20260507114003 | 20 | 210 | 6.4 | 12.9 | 0.00 | 0.05 | 0.03 | 74 | 1011.8 |
| 20260507113737 | 20 | 178 | 4.8 | 16.1 | 0.00 | 0.05 | 0.03 | 74 | 1011.9 |
| 20260507113005 | 20 | 137 | 6.4 | 16.1 | 0.00 | 0.05 | 0.03 | 73 | 1011.9 |
| 20260507112502 | 20 | 198 | 6.4 | 14.5 | 0.00 | 0.05 | 0.03 | 73 | 1012.0 |
| 20260507111958 | 20 | 220 | 6.4 | 14.5 | 0.00 | 0.05 | 0.03 | 73 | 1012.0 |
| 20260507111455 | 20 | 209 | 6.4 | 14.5 | 0.00 | 0.05 | 0.03 | 74 | 1012.0 |
| 20260507110958 | 20 | 209 | 8.0 | 14.5 | 0.00 | 0.05 | 0.03 | 74 | 1012.1 |
| 20260507110453 | 20 | 196 | 8.0 | 16.1 | 0.00 | 0.05 | 0.03 | 73 | 1012.1 |
| 20260507110231 | 20 | 222 | 8.0 | 16.1 | 0.00 | 0.05 | 0.03 | 73 | 1012.0 |
| 20260507105453 | 21 | 209 | 8.0 | 19.3 | 0.00 | 0.05 | 0.03 | 73 | 1012.0 |
| 20260507104952 | 21 | 215 | 8.0 | 19.3 | 0.00 | 0.05 | 0.03 | 73 | 1012.2 |
| 20260507104453 | 21 | 217 | 8.0 | 19.3 | 0.00 | 0.05 | 0.03 | 72 | 1012.2 |
| 20260507103952 | 21 | 200 | 8.0 | 16.1 | 0.00 | 0.05 | 0.03 | 72 | 1012.2 |
| 20260507103449 | 21 | 136 | 8.0 | 17.7 | 0.00 | 0.05 | 0.03 | 70 | 1012.2 |
| 20260507102950 | 21 | 207 | 8.0 | 17.7 | 0.00 | 0.05 | 0.03 | 70 | 1012.3 |
| 20260507102450 | 22 | 188 | 8.0 | 17.7 | 0.00 | 0.05 | 0.03 | 68 | 1012.2 |
| 20260507101950 | 23 | 201 | 6.4 | 16.1 | 0.00 | 0.05 | 0.03 | 67 | 1012.1 |
| 20260507101449 | 23 | 176 | 3.2 | 16.1 | 0.00 | 0.05 | 0.03 | 65 | 1012.1 |
| 20260507100949 | 23 | 260 | 3.2 | 6.4 | 0.00 | 0.05 | 0.03 | 62 | 1012.1 |
| 20260507100450 | 23 | 215 | 1.6 | 6.4 | 0.00 | 0.05 | 0.03 | 62 | 1012.0 |
| 20260507095944 | 23 | 330 | 0.0 | 1.6 | 0.00 | 0.05 | 0.03 | 61 | 1011.9 |
| 20260507095440 | 22 | 223 | 1.6 | 4.8 | 0.00 | 0.05 | 0.03 | 62 | 1011.9 |
| 20260507095217 | 22 | 345 | 1.6 | 4.8 | 0.00 | 0.05 | 0.03 | 64 | 1012.1 |
| 20260507094440 | 22 | 304 | 1.6 | 4.8 | 0.00 | 0.05 | 0.03 | 63 | 1012.1 |
| 20260507093946 | 21 | 92 | 3.2 | 9.7 | 0.00 | 0.05 | 0.03 | 66 | 1012.1 |
| 20260507093941 | 22 | 261 | 1.6 | 4.8 | 0.00 | 0.05 | 0.03 | 64 | 1012.1 |
| 20260507092937 | 21 | 114 | 4.8 | 11.3 | 0.00 | 0.05 | 0.03 | 65 | 1012.1 |
| 20260507092438 | 22 | 56 | 3.2 | 11.3 | 0.00 | 0.05 | 0.03 | 66 | 1012.0 |
| 20260507091938 | 22 | 6 | 3.2 | 8.0 | 0.00 | 0.05 | 0.03 | 66 | 1012.0 |
| 20260507091716 | 22 | 44 | 1.6 | 8.0 | 0.00 | 0.05 | 0.03 | 66 | 1012.0 |
| 20260507090936 | 22 | 352 | 1.6 | 6.4 | 0.00 | 0.05 | 0.03 | 66 | 1011.9 |
| 20260507090436 | 21 | 329 | 3.2 | 6.4 | 0.00 | 0.05 | 0.03 | 67 | 1012.0 |
| 20260507085933 | 21 | 283 | 1.6 | 6.4 | 0.00 | 0.05 | 0.03 | 68 | 1011.9 |
| 20260507085711 | 21 | 266 | 1.6 | 9.7 | 0.00 | 0.05 | 0.03 | 67 | 1012.0 |
| 20260507084933 | 21 | 27 | 3.2 | 11.3 | 0.00 | 0.05 | 0.03 | 66 | 1011.9 |
| 20260507084435 | 21 | 328 | 3.2 | 11.3 | 0.00 | 0.05 | 0.03 | 66 | 1012.0 |
| 20260507083934 | 21 | 54 | 3.2 | 6.4 | 0.00 | 0.05 | 0.03 | 66 | 1011.9 |
| 20260507083433 | 21 | 337 | 1.6 | 6.4 | 0.00 | 0.05 | 0.03 | 67 | 1011.9 |
| 20260507083216 | 21 | 211 | 1.6 | 4.8 | 0.00 | 0.05 | 0.03 | 66 | 1011.9 |
| 20260507082934 | 21 | 218 | 1.6 | 4.8 | 0.00 | 0.05 | 0.03 | 66 | 1011.9 |
| 20260507081934 | 21 | 81 | 1.6 | 9.7 | 0.00 | 0.05 | 0.03 | 67 | 1012.1 |
| 20260507081432 | 21 | 333 | 3.2 | 9.7 | 0.00 | 0.05 | 0.03 | 68 | 1012.2 |
| 20260507080932 | 21 | 9 | 3.2 | 8.0 | 0.00 | 0.05 | 0.03 | 67 | 1012.1 |
| 20260507080709 | 20 | 302 | 4.8 | 8.0 | 0.00 | 0.05 | 0.03 | 67 | 1012.1 |
| 20260507075931 | 20 | 301 | 4.8 | 8.0 | 0.00 | 0.05 | 0.03 | 68 | 1012.1 |
| 20260507075433 | 20 | 330 | 3.2 | 8.0 | 0.00 | 0.05 | 0.03 | 69 | 1012.1 |
| 20260507074932 | 20 | 326 | 3.2 | 9.7 | 0.00 | 0.05 | 0.03 | 68 | 1012.2 |
| 20260507074432 | 20 | 343 | 3.2 | 9.7 | 0.00 | 0.05 | 0.03 | 69 | 1012.2 |
| 20260507074211 | 20 | 324 | 3.2 | 9.7 | 0.00 | 0.05 | 0.03 | 72 | 1012.2 |
| 20260507073431 | 20 | 346 | 3.2 | 9.7 | 0.00 | 0.05 | 0.03 | 70 | 1012.3 |
| 20260507073209 | 20 | 40 | 4.8 | 8.0 | 0.00 | 0.05 | 0.03 | 69 | 1012.4 |
| 20260507072434 | 19 | 20 | 4.8 | 9.7 | 0.00 | 0.05 | 0.03 | 71 | 1012.4 |
| 20260507072211 | 19 | 29 | 4.8 | 11.3 | 0.00 | 0.05 | 0.03 | 71 | 1012.4 |
| 20260507071429 | 19 | 27 | 3.2 | 11.3 | 0.00 | 0.05 | 0.03 | 72 | 1012.5 |
| 20260507070930 | 19 | 330 | 4.8 | 8.0 | 0.00 | 0.08 | 0.03 | 72 | 1012.6 |
| 20260507070430 | 19 | 47 | 4.8 | 8.0 | 0.00 | 0.08 | 0.03 | 72 | 1012.5 |
| 20260507065930 | 19 | 51 | 3.2 | 8.0 | 0.00 | 0.08 | 0.03 | 73 | 1012.5 |
| 20260507065430 | 19 | 307 | 3.2 | 6.4 | 0.00 | 0.08 | 0.03 | 73 | 1012.4 |
| 20260507064930 | 19 | 16 | 3.2 | 8.0 | 0.00 | 0.08 | 0.03 | 72 | 1012.4 |
| 20260507064430 | 18 | 341 | 3.2 | 8.0 | 0.00 | 0.08 | 0.03 | 72 | 1012.4 |
| 20260507063930 | 18 | 48 | 3.2 | 6.4 | 0.00 | 0.08 | 0.03 | 75 | 1012.3 |
| 20260507063429 | 18 | 46 | 3.2 | 6.4 | 0.00 | 0.08 | 0.03 | 75 | 1012.3 |
| 20260507062923 | 18 | 38 | 3.2 | 8.0 | 0.00 | 0.08 | 0.03 | 76 | 1012.3 |
| 20260507062421 | 18 | 320 | 3.2 | 8.0 | 0.00 | 0.10 | 0.03 | 77 | 1012.4 |
| 20260507061921 | 18 | 35 | 3.2 | 6.4 | 0.00 | 0.10 | 0.03 | 76 | 1012.4 |
| 20260507061701 | 18 | 32 | 3.2 | 6.4 | 0.00 | 0.10 | 0.03 | 77 | 1012.4 |
| 20260507060922 | 18 | 42 | 4.8 | 8.0 | 0.00 | 0.13 | 0.03 | 79 | 1012.3 |
| 20260507060422 | 17 | 44 | 4.8 | 8.0 | 0.00 | 0.13 | 0.03 | 78 | 1012.4 |
| 20260507055920 | 17 | 43 | 3.2 | 4.8 | 0.00 | 0.13 | 0.03 | 80 | 1012.2 |
| 20260507055708 | 17 | 39 | 0.0 | 4.8 | 0.00 | 0.13 | 0.03 | 82 | 1012.2 |
| 20260507054927 | 16 | 27 | 1.6 | 3.2 | 0.00 | 0.15 | 0.03 | 85 | 1012.2 |
| 20260507054920 | 17 | 27 | 0.0 | 3.2 | 0.00 | 0.15 | 0.03 | 84 | 1012.3 |
| 20260507053915 | 16 | 21 | 1.6 | 3.2 | 0.00 | 0.15 | 0.03 | 87 | 1012.3 |
| 20260507053416 | 16 | 33 | 0.0 | 3.2 | 0.00 | 0.15 | 0.03 | 88 | 1012.3 |
| 20260507052913 | 15 | 30 | 0.0 | 1.6 | 0.00 | 0.15 | 0.03 | 88 | 1012.3 |
| 20260507052414 | 15 | 5 | 0.0 | 3.2 | 0.00 | 0.18 | 0.03 | 88 | 1012.2 |
| 20260507051910 | 15 | 4 | 1.6 | 4.8 | 0.00 | 0.18 | 0.03 | 88 | 1012.2 |
| 20260507051411 | 15 | 6 | 1.6 | 4.8 | 0.00 | 0.18 | 0.03 | 88 | 1012.2 |
| 20260507050907 | 15 | 351 | 3.2 | 6.4 | 0.00 | 0.18 | 0.03 | 88 | 1012.2 |
| 20260507050407 | 15 | 352 | 1.6 | 6.4 | 0.00 | 0.18 | 0.03 | 88 | 1012.2 |
| 20260507045908 | 15 | 7 | 0.0 | 3.2 | 0.00 | 0.18 | 0.03 | 89 | 1012.2 |
| 20260507045405 | 15 | 332 | 0.0 | 0.0 | 0.00 | 0.18 | 0.03 | 89 | 1012.1 |
| 20260507044901 | 15 | 332 | 0.0 | 0.0 | 0.00 | 0.18 | 0.03 | 89 | 1012.1 |
| 20260507044401 | 15 | 332 | 0.0 | 0.0 | 0.00 | 0.18 | 0.03 | 89 | 1012.0 |
| 20260507043901 | 15 | 332 | 0.0 | 1.6 | 0.00 | 0.18 | 0.03 | 89 | 1012.0 |
| 20260507043400 | 14 | 332 | 0.0 | 3.2 | 0.00 | 0.18 | 0.03 | 89 | 1012.2 |
| 20260507042900 | 14 | 347 | 0.0 | 3.2 | 0.00 | 0.18 | 0.03 | 88 | 1012.1 |
| 20260507042357 | 14 | 347 | 0.0 | 1.6 | 0.00 | 0.18 | 0.03 | 88 | 1012.0 |
| 20260507041855 | 14 | 67 | 0.0 | 0.0 | 0.03 | 0.18 | 0.03 | 88 | 1012.1 |
| 20260507041353 | 14 | 67 | 0.0 | 0.0 | 0.03 | 0.18 | 0.03 | 88 | 1012.0 |
| 20260507040852 | 14 | 67 | 0.0 | 0.0 | 0.03 | 0.18 | 0.03 | 87 | 1012.0 |
| 20260507040349 | 14 | 67 | 0.0 | 0.0 | 0.03 | 0.18 | 0.03 | 87 | 1012.0 |